Trenton, NJ

7:06 PM EST on December 09, 2016 (GMT -0500)
McGuire Air Force Base

Weather History for KWRI - January, 2013

Change the Weather History Date:

Wednesday, January 9, 2013

  Actual Average Record
Temperature  
Mean Temperature 40 °F -  
Max Temperature 52 °F 39 °F 66 °F (1998)
Min Temperature 28 °F 23 °F 6 °F (2004)
Degree Days  
Heating Degree Days 25    
Moisture  
Dew Point 35 °F    
Average Humidity 73    
Maximum Humidity 92    
Minimum Humidity 57    
Precipitation  
Precipitation 0.00 in - - ()
Sea Level Pressure  
Sea Level Pressure 30.28 in    
Wind  
Wind Speed 4 mph (WSW)    
Max Wind Speed 15 mph    
Max Gust Speed -    
Visibility 10 miles    
Events Rain    
Averages and records for this station are not official NWS values.
T = Trace of Precipitation, MM = Missing Value Source: NWS Daily Summary

Daily Weather History Graph

Daily Weather History Graph

Search for Another Location

Airport or City:

Trip Planner

Search our weather history database for the weather conditions in past years. The results will help you decide how hot, cold, wet, or windy it might be!

Date:

Astronomy

Jan. 09, 2013 Rise Set
Actual Time 7:20 AM EST 4:51 PM EST
Civil Twilight 6:49 AM EST 5:21 PM EST
Nautical Twilight 6:16 AM EST 5:55 PM EST
Astronomical Twilight 5:43 AM EST 6:27 PM EST
Moon 4:56 AM EST (1/9) 2:50 PM EST (1/9)
Length of Visible Light 10h 31m
Length of Day
9h 31m
Waning Crescent, 6% of the Moon is Illuminated
Jan 9
Waning Crescent
Jan 11
New
Jan 18
First Quarter
Jan 26
Full
Feb 3
Last Quarter

Hourly Weather History & Observations

Time (EST) Temp. Windchill Dew Point Humidity Pressure Visibility Wind Dir Wind Speed Gust Speed Precip Events Conditions
12:55 AM 35.1 °F - 32.2 °F 89% 30.39 in 10.0 mi Calm Calm - N/A   Overcast
1:55 AM 35.6 °F - 31.1 °F 84% 30.38 in 10.0 mi Calm Calm - N/A   Overcast
2:55 AM 33.1 °F - 30.6 °F 90% 30.36 in 10.0 mi Calm Calm - N/A   Mostly Cloudy
3:55 AM 32.9 °F - 30.0 °F 89% 30.35 in 10.0 mi Calm Calm - N/A   Overcast
4:55 AM 32.9 °F - 30.2 °F 90% 30.35 in 10.0 mi Calm Calm - N/A   Overcast
5:55 AM 30.7 °F - 28.6 °F 92% 30.35 in 10.0 mi Calm Calm - N/A   Clear
6:55 AM 29.1 °F - 27.1 °F 92% 30.37 in 10.0 mi Calm Calm - N/A   Clear
7:55 AM 28.2 °F - 26.1 °F 92% 30.37 in 10.0 mi Calm Calm - N/A   Clear
8:55 AM 35.8 °F - 32.2 °F 87% 30.38 in 10.0 mi Calm Calm - N/A   Clear
9:55 AM 42.8 °F 41.1 °F 33.6 °F 70% 30.36 in 10.0 mi SSW 3.5 mph - N/A   Clear
10:55 AM 46.0 °F 43.1 °F 34.3 °F 64% 30.32 in 10.0 mi SSW 5.8 mph - N/A   Clear
11:55 AM 49.3 °F - 35.1 °F 58% 30.29 in 10.0 mi SW 10.4 mph - N/A   Partly Cloudy
12:55 PM 52.0 °F - 37.0 °F 57% 30.25 in 10.0 mi SW 10.4 mph - N/A   Mostly Cloudy
1:55 PM 51.8 °F - 38.1 °F 60% 30.25 in 10.0 mi WSW 9.2 mph - N/A   Overcast
2:55 PM 51.6 °F - 38.3 °F 60% 30.20 in 10.0 mi SW 15.0 mph - N/A   Mostly Cloudy
3:48 PM 51.8 °F - 39.2 °F 62% 30.16 in 10.0 mi SSW 12.7 mph - N/A Rain Light Rain
3:55 PM 51.3 °F - 39.2 °F 63% 30.17 in 10.0 mi SW 12.7 mph - 0.00 in Rain Light Rain
3:57 PM 51.8 °F - 39.2 °F 62% 30.17 in 10.0 mi SW 13.8 mph - N/A   Clear
4:55 PM 50.9 °F - 39.2 °F 64% 30.17 in 10.0 mi SW 11.5 mph - 0.00 in   Mostly Cloudy
5:55 PM 51.4 °F - 39.6 °F 64% 30.19 in 10.0 mi WSW 11.5 mph - N/A   Overcast
6:55 PM 50.7 °F - 39.6 °F 66% 30.22 in 10.0 mi West 11.5 mph - N/A   Overcast
7:55 PM 48.2 °F - 38.8 °F 70% 30.24 in 10.0 mi West 11.5 mph - N/A   Partly Cloudy
8:55 PM 44.1 °F 39.5 °F 37.8 °F 78% 30.25 in 10.0 mi West 8.1 mph - N/A   Clear
9:55 PM 43.3 °F 39.2 °F 36.7 °F 77% 30.25 in 10.0 mi West 6.9 mph - N/A   Clear
10:55 PM 45.7 °F 40.2 °F 35.1 °F 66% 30.26 in 10.0 mi WNW 11.5 mph - N/A   Clear
11:55 PM 47.1 °F - 32.5 °F 57% 30.28 in 10.0 mi West 9.2 mph - N/A   Clear